New Roads False River Regiona, LA

4:01 AM CDT on September 15, 2019 (GMT -0500)
False River

Weather History for KHZR - July, 2019

Change the Weather History Date:

Thursday, July 11, 2019

  Actual Average (WUND) Record (WUND)
Temperature  
Mean Temperature 82 °F -  
Max Temperature 91 °F - - (-1)
Min Temperature 73 °F - - (-1)
Cooling Degree Days 17    
Growing Degree Days 32 (Base 50)    
Moisture  
Dew Point 76 °F    
Average Humidity 83    
Maximum Humidity 100    
Minimum Humidity 62    
Precipitation  
Precipitation 0.19 in - - ()
Sea Level Pressure  
Sea Level Pressure 29.84 in    
Wind  
Wind Speed 4 mph (North)    
Max Wind Speed 12 mph    
Max Gust Speed 18 mph    
Visibility 10 miles    
Events Rain , Thunderstorm    
Averages and records for this station are not official NWS values.
T = Trace of Precipitation, MM = Missing Value Source: NWS Daily Summary

Daily Weather History Graph

Daily Weather History Graph

Search for Another Location

Airport or City:

Astronomy

Jul. 11, 2019 Rise Set
Actual Time 6:11 AM CDT 8:11 PM CDT
Civil Twilight 5:43 AM CDT 8:38 PM CDT
Nautical Twilight 5:10 AM CDT 9:11 PM CDT
Astronomical Twilight 4:35 AM CDT 9:47 PM CDT
Moon 3:35 PM CDT (7/11) 2:08 AM CDT (7/11)
Length of Visible Light 14h 54m
Length of Day
14h 00m
Waxing Gibbous, 74% of the Moon is Illuminated
Jul 11
Waxing Gibbous
Jul 16
Full
Jul 24
Last Quarter
Jul 31
New
Aug 7
First Quarter

Hourly Weather History & Observations

Time (CDT) Temp. Heat Index Dew Point Humidity Pressure Visibility Wind Dir Wind Speed Gust Speed Precip Events Conditions
12:14 AM 78.8 °F - 77.0 °F 94% 29.91 in 10.0 mi Calm Calm - N/A   Scattered Clouds
12:54 AM 78.8 °F - 75.2 °F 89% 29.92 in 10.0 mi Calm Calm - N/A   Mostly Cloudy
1:14 AM 78.8 °F - 75.2 °F 89% 29.91 in 10.0 mi Calm Calm - N/A   Scattered Clouds
1:34 AM 78.8 °F - 75.2 °F 89% 29.90 in 10.0 mi North 4.6 mph - N/A   Scattered Clouds
1:56 AM 77.0 °F - 75.2 °F 94% 29.90 in 10.0 mi Calm Calm - N/A   Clear
2:14 AM 77.0 °F - 73.4 °F 89% 29.89 in 10.0 mi Calm Calm - N/A   Clear
2:34 AM 77.0 °F - 75.2 °F 94% 29.88 in 10.0 mi Calm Calm - N/A   Clear
2:55 AM 77.0 °F - 75.2 °F 94% 29.87 in 10.0 mi Calm Calm - N/A   Clear
3:15 AM 77.0 °F - 75.2 °F 94% 29.87 in 10.0 mi Calm Calm - N/A   Clear
3:36 AM 75.2 °F - 75.2 °F 100% 29.86 in 10.0 mi Calm Calm - N/A   Clear
3:56 AM 75.2 °F - 75.2 °F 100% 29.84 in 10.0 mi Calm Calm - N/A   Clear
4:14 AM 75.2 °F - 75.2 °F 100% 29.84 in 10.0 mi Calm Calm - N/A   Clear
4:34 AM 75.2 °F - 75.2 °F 100% 29.84 in 10.0 mi SW 3.5 mph - N/A   Clear
4:55 AM 75.2 °F - 75.2 °F 100% 29.84 in 10.0 mi Calm Calm - N/A   Clear
5:15 AM 73.4 °F - 73.4 °F 100% 29.86 in 10.0 mi Calm Calm - N/A   Clear
5:35 AM 75.2 °F - 75.2 °F 100% 29.87 in 10.0 mi NW 5.8 mph - N/A   Clear
5:54 AM 77.0 °F - 75.2 °F 94% 29.88 in 10.0 mi NNW 3.5 mph - N/A   Clear
6:16 AM 77.0 °F - 75.2 °F 94% 29.89 in 10.0 mi NNW 4.6 mph - N/A   Clear
6:34 AM 77.0 °F - 75.2 °F 94% 29.89 in 10.0 mi North 8.1 mph - N/A   Clear
6:54 AM 78.8 °F - 75.2 °F 89% 29.90 in 10.0 mi North 6.9 mph - N/A   Clear
7:14 AM 78.8 °F - 75.2 °F 89% 29.90 in 10.0 mi North 6.9 mph - N/A   Clear
7:34 AM 78.8 °F - 75.2 °F 89% 29.90 in 10.0 mi North 5.8 mph - N/A   Clear
7:54 AM 80.6 °F 86.2 °F 75.2 °F 84% 29.90 in 10.0 mi North 6.9 mph - N/A   Clear
8:14 AM 80.6 °F 86.2 °F 75.2 °F 84% 29.90 in 10.0 mi NNE 9.2 mph - N/A   Clear
8:34 AM 80.6 °F 86.2 °F 75.2 °F 84% 29.90 in 10.0 mi NNE 8.1 mph - N/A   Clear
9:17 AM 82.4 °F 89.5 °F 75.2 °F 79% 29.89 in 10.0 mi NNE 6.9 mph - N/A   Clear
9:35 AM 84.2 °F 92.3 °F 75.2 °F 74% 29.89 in 10.0 mi NE 8.1 mph - N/A   Clear
9:56 AM 84.2 °F 92.3 °F 75.2 °F 74% 29.89 in 10.0 mi NE 5.8 mph - N/A   Clear
10:15 AM 84.2 °F 92.3 °F 75.2 °F 74% 29.89 in 10.0 mi NNE 5.8 mph - N/A   Clear
10:36 AM 87.8 °F 97.6 °F 75.2 °F 66% 29.88 in 10.0 mi NE 5.8 mph - N/A   Clear
10:54 AM 87.8 °F 97.6 °F 75.2 °F 66% 29.87 in 10.0 mi NE 6.9 mph - N/A   Clear
11:14 AM 89.6 °F 102.2 °F 77.0 °F 66% 29.87 in 10.0 mi NE 4.6 mph - N/A   Scattered Clouds
11:34 AM 89.6 °F 102.2 °F 77.0 °F 66% 29.87 in 10.0 mi NNE 3.5 mph - N/A   Scattered Clouds
11:54 AM 89.6 °F 99.8 °F 75.2 °F 62% 29.87 in 10.0 mi NW 6.9 mph - N/A   Mostly Cloudy
12:34 PM 87.8 °F 97.6 °F 75.2 °F 66% 29.86 in 10.0 mi NNW 6.9 mph - N/A   Overcast
12:54 PM 89.6 °F 99.8 °F 75.2 °F 62% 29.86 in 10.0 mi NNW 5.8 mph - N/A   Overcast
1:14 PM 89.6 °F 102.2 °F 77.0 °F 66% 29.85 in 10.0 mi NNW 8.1 mph - N/A   Overcast
1:34 PM 87.8 °F 99.7 °F 77.0 °F 70% 29.84 in 10.0 mi NW 6.9 mph - N/A   Mostly Cloudy
1:55 PM 91.4 °F 105.1 °F 77.0 °F 63% 29.82 in 10.0 mi NNW 10.4 mph - N/A   Scattered Clouds
2:14 PM 91.4 °F 105.1 °F 77.0 °F 63% 29.82 in 10.0 mi NNW 8.1 mph 18.4 mph N/A   Mostly Cloudy
2:35 PM 89.6 °F 102.2 °F 77.0 °F 66% 29.82 in 10.0 mi NW 10.4 mph 16.1 mph N/A   Mostly Cloudy
2:54 PM 87.8 °F 97.6 °F 75.2 °F 66% 29.81 in 10.0 mi NNW 11.5 mph 17.3 mph N/A   Scattered Clouds
3:14 PM 87.8 °F 102.5 °F 78.8 °F 75% 29.80 in 10.0 mi NW 6.9 mph - N/A Thunderstorm Clear
3:34 PM 87.8 °F 102.5 °F 78.8 °F 75% 29.80 in 10.0 mi NNW 9.2 mph - N/A   Scattered Clouds
3:54 PM 91.4 °F 105.1 °F 77.0 °F 63% 29.79 in 1.0 mi NNW 11.5 mph - N/A Thunderstorm Mostly Cloudy
4:16 PM 89.6 °F 104.7 °F 78.8 °F 70% 29.78 in 10.0 mi NNW 5.8 mph - N/A   Scattered Clouds
4:34 PM 89.6 °F 104.7 °F 78.8 °F 70% 29.76 in 10.0 mi NW 5.8 mph - N/A   Clear
4:54 PM 87.8 °F 102.5 °F 78.8 °F 75% 29.76 in 10.0 mi NW 5.8 mph - N/A   Clear
5:14 PM 89.6 °F 104.7 °F 78.8 °F 70% 29.74 in 10.0 mi NW 5.8 mph - N/A Thunderstorm Clear
5:34 PM 91.4 °F 107.2 °F 78.8 °F 66% 29.74 in 10.0 mi North 10.4 mph - N/A Thunderstorm Scattered Clouds
5:55 PM 84.2 °F 96.1 °F 78.8 °F 84% 29.74 in 10.0 mi ESE 8.1 mph 17.3 mph N/A Rain , Thunderstorm Light Thunderstorms and Rain
6:14 PM 80.6 °F 88.1 °F 78.8 °F 94% 29.75 in 5.0 mi South 3.5 mph - 0.18 in Rain , Thunderstorm Light Thunderstorms and Rain
6:57 PM 82.4 °F 94.0 °F 80.6 °F 94% 29.79 in 10.0 mi NE 3.5 mph - 0.18 in Rain , Thunderstorm Light Thunderstorms and Rain
7:14 PM 82.4 °F 90.9 °F 77.0 °F 84% 29.79 in 10.0 mi Calm Calm - N/A Rain , Thunderstorm Light Thunderstorms and Rain
7:34 PM 80.6 °F 86.2 °F 75.2 °F 84% 29.78 in 10.0 mi NE 3.5 mph - N/A Thunderstorm Thunderstorm
7:54 PM 80.6 °F 88.1 °F 78.8 °F 94% 29.79 in 10.0 mi NNW 6.9 mph - 0.01 in Thunderstorm Thunderstorm
8:34 PM 78.8 °F - 77.0 °F 94% 29.80 in 10.0 mi North 4.6 mph - N/A Thunderstorm Clear
8:54 PM 78.8 °F - 75.2 °F 89% 29.79 in 10.0 mi North 6.9 mph - N/A   Clear
9:15 PM 77.0 °F - 75.2 °F 94% 29.81 in 10.0 mi North 8.1 mph - N/A Thunderstorm Clear
9:34 PM 77.0 °F - 75.2 °F 94% 29.82 in 10.0 mi North 8.1 mph - N/A   Clear
9:54 PM 77.0 °F - 75.2 °F 94% 29.82 in 10.0 mi North 5.8 mph - N/A   Clear
10:14 PM 77.0 °F - 75.2 °F 94% 29.82 in 10.0 mi NE 3.5 mph - N/A   Clear
11:15 PM 77.0 °F - 75.2 °F 94% 29.82 in 10.0 mi NE 6.9 mph - N/A   Clear
11:35 PM 77.0 °F - 75.2 °F 94% 29.81 in 10.0 mi NNE 6.9 mph - N/A   Clear
11:55 PM 77.0 °F - 75.2 °F 94% 29.82 in 10.0 mi NNE 6.9 mph - N/A   Clear